Regional Weather Roundup
Issued by NWS

Home | Current Version | Previous Version | Graphics & Text | Print | Product List | Glossary Off
Versions: 1 2 3 4 5 6 7 8 9 10 11 12 13 14 15 16 17 18 19 20 21 22 23 24 25 26 27 28 29 30 31 32 33 34 35 36 37 38 39 40 41 42 43 44 45 46 47 48 49 50

107
ASUS43 KLSX 191557
RWRMO

WEATHER SUMMARY FOR MISSOURI
NATIONAL WEATHER SERVICE SPRINGFIELD MO
1000 AM CST MON FEB 19 2018

NOTE: "FAIR" INDICATES FEW OR NO CLOUDS BELOW 12,000 FEET WITH NO
       SIGNIFICANT WEATHER AND/OR OBSTRUCTIONS TO VISIBILITY.
       CURRENT SKY AND/OR WEATHER CONDITIONS ARE NOT AVAILABLE FOR
       CHILLICOTHE AND FARMINGTON.

MOZ001>031-035>038-043-044-053-054-191700-
...NORTHERN AND WESTERN MISSOURI...

CITY           SKY/WX    TMP DP  RH WIND       PRES   REMARKS
KANSAS CTY INT CLOUDY    40  38  93 NW18      29.70R
LEE`S SUMMIT   CLOUDY    65  60  84 S20G28    29.69S
ST JOSEPH      CLOUDY    34  34 100 NW14      29.74R FOG     WCI  25
CHILLICOTHE      N/A     64  60  87 S13G21    29.68R

$$
MOZ066>068-077>081-088>096-101>105-191700-
...SOUTHWEST MISSOURI...

CITY           SKY/WX    TMP DP  RH WIND       PRES   REMARKS
SPRINGFIELD    CLOUDY    58  56  93 SE13      29.84F
JOPLIN         HVY RAIN  61  61 100 S16       29.79R FOG
BRANSON        CLOUDY    64  57  77 S16G24    29.90S

$$
MOZ032>034-039>042-045>050-055>058-069>072-191700-
...CENTRAL MISSOURI...

CITY           SKY/WX    TMP DP  RH WIND       PRES   REMARKS
COLUMBIA       NOT AVBL
JEFFERSON CITY CLOUDY    63  55  75 S10       29.81S
ROLLA          CLOUDY    58  56  93 S23G33    29.87R
SEDALIA        CLOUDY    65  59  81 S15       29.77R
WARRENSBURG    CLOUDY    64  57  77 S16G24    29.72S

$$
MOZ051-052-059>065-191700-
...EAST CENTRAL MISSOURI...

CITY           SKY/WX    TMP DP  RH WIND       PRES   REMARKS
ST LOUIS INTL  CLOUDY    61  57  87 S23G32    29.86S

$$
MOZ072>076-082>087-097>100-106>115-191700-
...SOUTH CENTRAL AND SOUTHEAST MISSOURI...

CITY           SKY/WX    TMP DP  RH WIND       PRES   REMARKS
CAPE GIRARDEAU CLOUDY    62  59  90 SW20G35   30.02S
POPLAR BLUFF   CLOUDY    63  59  87 S15G23    30.02R
WEST PLAINS    CLOUDY    60  57  89 S13G28    29.95S

$$



USA.gov is the U.S. government's official web portal to all federal, state and local government web resources and services.